Regional Weather Roundup
Issued by NWS

Home | Current Version | Previous Version | Graphics & Text | Print | Product List | Glossary On
Versions: 1 2 3 4 5 6 7 8 9 10 11 12 13 14 15 16 17 18 19 20 21 22 23 24 25 26 27 28 29 30 31 32 33 34 35 36 37 38 39 40 41 42 43 44 45 46 47 48 49 50
000
ASUS43 KDTX 212001
RWRMI
MICHIGAN HOURLY REGIONAL WEATHER ROUNDUP
NATIONAL WEATHER SERVICE DETROIT/PONTIAC MI
400 PM EDT SUN SEP 21 2014

NOTE: "FAIR" INDICATES FEW OR NO CLOUDS BELOW 12,000 FEET WITH NO
SIGNIFICANT WEATHER AND/OR OBSTRUCTION TO VISIBILITY.

MIZ047>049-052>055-059>063-066>070-074>076-081>083-212100-
SOUTHEAST LOWER MICHIGAN

CITY           SKY/WX    TMP DP  RH WIND       PRES   REMARKS
ADRIAN         PTSUNNY   60  56  86 NW20G25   29.78R
ALMA           CLOUDY    59  53  80 NW13G28   29.78R
ANN ARBOR      LGT RAIN  60  54  80 NW21G32   29.73R
BAD AXE        LGT RAIN  53  53 100 N18       29.72R
CARO           DRIZZLE   54  52  94 N15G21    29.73R
DETROIT CITY   LGT RAIN  65  53  65 W12G22    29.68S
DETROIT        LGT RAIN  60  56  86 W15G21    29.72R FOG
FLINT          HVY RAIN  58  53  84 N17G32    29.73R
GROSSE ILE     LGT RAIN  61  55  82 W17G25    29.70R
HILLSDALE      PTSUNNY   62  53  73 NW15G24   29.79R
HOWELL         CLOUDY    59  55  89 NW16G22   29.73R

CITY           SKY/WX    TMP DP  RH WIND       PRES   REMARKS
JACKSON        PTSUNNY   61  55  81 W15G23    29.76R
LAMBERTVILLE   LGT RAIN  63  54  72 W12G23    29.76R
LANSING        LGT RAIN  58  54  86 NW22G32   29.77R FOG
LAPEER         HVY RAIN  54  52  92 N14G21    29.71R
MASON          RAIN      60  54  81 W23G35    29.76R
MONROE         LGT RAIN  61  55  82 W13       29.73R
MT. CLEMENS    LGT RAIN  62  56  81 W13       29.65S
PONTIAC        LGT RAIN  59  54  83 W16       29.70R
PORT HOPE        N/A     54  52  93 VRB5      29.69R
PORT HURON     CLOUDY    64  54  68 W5        29.65R
TRI CITIES     CLOUDY    57  52  83 N23G29    29.77R
TROY           LGT RAIN  61  54  77 W15G25    29.71R
SAGINAW HB     RAIN      55  55 100 N13G18    29.75R
$$
MIZ043>046-050>051-056>058-064>065-071>073-077>080-212100-
SOUTHWEST LOWER MICHIGAN

CITY           SKY/WX    TMP DP  RH WIND       PRES   REMARKS
BATTLE CREEK   CLOUDY    61  52  72 NW18G26   29.82R
BENTON HARBOR  CLOUDY    57  50  77 NW9G26    29.92R
BIG RAPIDS     DRIZZLE   53  51  93 NW10G23   29.85R
COLDWATER      CLOUDY    62  54  73 NW23G31   29.81R
FREMONT        CLOUDY    56  49  76 N15G30    29.87R
HOLLAND        CLOUDY    60  50  69 NW13G24   29.89R
GRAND RAPIDS   LGT RAIN  57  55  93 NW23G30   29.84R
IONIA          CLOUDY    59  54  84 NW14G25   29.80R
KALAMAZOO      CLOUDY    61  51  70 NW24G32   29.84R
LUDINGTON      CLOUDY    52  49  90 N18G29    29.93R
MARSHALL       PTSUNNY   63  52  67 W16G28    29.79R
MOUNT PLEASANT CLOUDY    55  50  84 NW13G23   29.80R
MUSKEGON       CLOUDY    57  48  72 NW21G35   29.90R
SOUTH HAVEN    CLOUDY    58  52  79 NW22G33   29.90R
$$
MIZ016>042-212100-
NORTHERN LOWER MICHIGAN

CITY           SKY/WX    TMP DP  RH WIND       PRES   REMARKS
ALPENA         LGT RAIN  51  49  92 NW9       29.79R
BEAVER ISLAND  CLOUDY    49  42  74 NW14G24   29.90R
BELLAIRE       CLOUDY    52  46  78 NW7       29.88R
CADILLAC       DRIZZLE   50  49  95 NW13G20   29.85R
CHARLEVOIX     CLOUDY    51  45  80 N17G25    29.92R
FRANKFORT      CLOUDY    50  44  80 N12G24    29.93R
GAYLORD        CLOUDY    50  44  80 NW10G23   29.83R
GRAYLING       CLOUDY    51  49  93 NW12G22   29.84R
HARBOR SPRINGS CLOUDY    52  42  69 NW10G18   29.87R
HOUGHTON LAKE  LGT RAIN  50  47  89 NW16G23   29.82R
MANISTEE       CLOUDY    52  46  82 N17G26    29.93R
OSCODA         LGT RAIN  50  49  96 N15G21    29.75R
PELLSTON       CLOUDY    53  43  68 NW18      29.86R
ROGERS CITY    CLOUDY    52  48  86 NW10G18   29.81R
TRAVERSE CITY  CLOUDY    52  45  77 NW15G24   29.89R
$$
MIZ007>008-015-212100-
EASTERN UPPER MICHIGAN

CITY           SKY/WX    TMP DP  RH WIND       PRES   REMARKS
KINROSS        CLOUDY    52  43  71 NW26G32   29.84R
MACKINAC ISLAN CLOUDY    50  43  77 N15G25    29.85R
NEWBERRY       CLOUDY    46  37  69 N21G30    29.91R
S. S. MARIE    PTSUNNY   54  40  59 N13G18    29.85R
$$
MIZ004>006-011>014-085-212100-
CENTRAL UPPER MICHIGAN

CITY           SKY/WX    TMP DP  RH WIND       PRES   REMARKS
MANISTIQUE     CLOUDY    47  38  71 N22G29    29.93R
ESCANABA       CLOUDY    46  37  71 N14G21    29.99R
MENOMINEE      PTSUNNY   55  41  58 N14G22    29.97R
SAWYER-GWINN   CLOUDY    43  37  81 NW14G24   30.01R
$$
MIZ001>003-009>011-084-212100-
WESTERN UPPER MICHIGAN

CITY           SKY/WX    TMP DP  RH WIND       PRES   REMARKS
IRON MOUNTAIN  PTSUNNY   51  37  58 NW21G29   30.01R
HOUGHTON       MOSUNNY   49  37  63 N13       30.06R
COPPER HARBOR    N/A     47  37  68 NE17      30.05R
IRONWOOD       MOSUNNY   50  39  66 NW13      30.09S
$$

ABBREVIATIONS USED IN REMARKS
   TC - TEMPERATURE IN CELSIUS
  WCI - WIND CHILL INDEX
   HX - HEAT INDEX
  VSB - VISIBILITY




USA.gov is the U.S. government's official web portal to all federal, state and local government web resources and services.